Flag for Saudi Arabia Weather past 2 weeks in Riyadh, Saudi Arabia

Now
84 °F

Passing clouds.


Feels Like: 82 °F
Forecast: 84 / 100 °F
Wind: 2 mph from Northeast

Location: King Khaled International Airport

Current Time: May 25, 2015 at 10:47:33 PM

Latest Report: May 25, 2015 at 10:00 PM


Visibility: 5 mi

Pressure: 29.95 "Hg

Humidity: 25%

Dew point: 45 °F

Location of RiyadhLocation

Historic Weather in Riyadh — Graph

°F

Riyadh temperature yesterday

Maximum temperature yesterday: 106 °F (at 1:00 PM)
Minimum temperature yesterday: 86 °F (at 5:00 AM)
Average temperature yesterday: 96 °F

Past Weeks' High & Low Weather Summary

 TemperatureHumidityPressure
High109 °F (May 21, 2:00 PM)34% (May 16, 3:00 AM)30.07 "Hg (May 16, 3:00 AM)
Low72 °F (May 11, 4:00 AM)5% (May 11, 3:00 PM)29.74 "Hg (May 21, 6:00 PM)
Average93 °F13%29.90 "Hg
* Reported May 10 9:00 PM — May 25 9:00 PM, Riyadh, Weather by CustomWeather, © 2015

Note: Actual official high and low records may vary slightly from our data, if they occured in-between our weather recording intervals... More about our weather records

Advertising

Riyadh weather history for previous 24 hours

 ConditionsComfort  
Time TempWeatherWind HumidityBarometerVisibility
9:00 PM
Mon, May 25
88 °FPartly cloudy.8 mph21%29.95 "Hg5 mi
8:00 PM91 °FPassing clouds.No wind17%29.92 "Hg5 mi
7:00 PM91 °FPassing clouds.6 mph18%29.92 "Hg3 mi
6:00 PM91 °FPartly sunny.8 mph18%29.92 "Hg3 mi
5:00 PM91 °FPartly sunny.15 mph17%29.95 "Hg3 mi
4:00 PM91 °FPartly sunny.17 mph20%29.95 "Hg3 mi
3:00 PM95 °FBroken clouds.14 mph16%29.98 "Hg3 mi
2:00 PM93 °FOvercast.17 mph19%29.98 "Hg2 mi
1:00 PM97 °FBroken clouds.17 mph17%29.98 "Hg1 mi
12:00 PM93 °FBroken clouds.18 mph20%29.98 "Hg2 mi
11:00 AM95 °FBroken clouds.20 mph18%30.01 "Hg2 mi
10:00 AM93 °FBroken clouds.15 mph19%30.01 "Hg3 mi
9:00 AM93 °FMore clouds than sun.9 mph17%29.98 "Hg3 mi
8:00 AM91 °FScattered clouds.13 mph20%29.95 "Hg3 mi
7:00 AM88 °FScattered clouds.13 mph24%29.92 "Hg3 mi
6:00 AM88 °FScattered clouds.13 mph22%29.92 "Hg4 mi
5:00 AM86 °FPassing clouds.5 mph25%29.92 "Hg3 mi
4:00 AM86 °FPassing clouds.6 mph25%29.89 "Hg3 mi
3:00 AM84 °FPassing clouds.5 mph29%29.89 "Hg2 mi
2:00 AM86 °FClear.6 mph25%29.89 "Hg2 mi
1:00 AM88 °FDuststorm.6 mph21%29.92 "Hg2 mi
12:00 AM88 °FClear.9 mph22%29.92 "Hg2 mi
11:00 PM
Sun, May 24
90 °FDuststorm.21 mph21%29.92 "Hg2 mi
10:00 PM91 °FSandstorm.18 mph20%29.92 "Hg1 mi
Weather by CustomWeather, © 2015

See weather overviewHow to use our weather pages